Preview of NWS' New Version of Forecast
This preview is not operational and should not be used for support decisions.

Regional Weather Roundup (RWR)

Issued by Memphis, TN (MEG)

                            
000
ASUS44 KMEG 241610
RWRMEG
MEMPHIS CWA HOURLY WEATHER ROUNDUP
NATIONAL WEATHER SERVICE MEMPHIS TN
1100 AM CDT WED APR 24 2019

...WEST TENNESSEE...
  
CITY           SKY/WX    TMP DP  RH WIND       PRES   REMARKS
MEMPHIS INTL   FAIR      74  65  73 SW7G17    29.97F                  
NWS MEMPHIS      N/A     74 N/A N/A MISG        N/A                   
JACKSON        FAIR      74  63  68 SW10      29.98S                  
COVINGTON      SUNNY     75  64  69 S8        29.96S                  
SOMERVILLE     SUNNY     75  63  64 S7        29.96F                  
BOLIVAR        SUNNY     75  61  60 S9        29.97F                  
LEXINGTON      SUNNY     73  61  64 VRB6      29.98F                  
SELMER         SUNNY     73  61  64 CALM      29.98F                  
DYERSBURG      FAIR      74  62  66 W10       29.96S                  
UNION CITY     SUNNY     75  64  69 SW8       29.93F                  
PARIS          SUNNY     75  63  64 SW10      29.95F                  
HUNTINGDON     MOSUNNY   75  64  69 VRB6      29.96F                  


...EASTERN ARKANSAS...
  
CITY           SKY/WX    TMP DP  RH WIND       PRES   REMARKS
JONESBORO      FAIR      76  67  73 S13       29.93S                  
WEST MEMPHIS   FAIR      74  66  76 S10       29.94F                  
BATESVILLE     PTSUNNY   75  64  68 SW13      29.92S                  
NEWPORT        FAIR      74  64  71 SW16      29.93R                  
WALNUT RIDGE   FAIR      75  65  70 S10       29.92S                  
BLYTHEVILLE    FAIR      75  62  64 SW9       29.94F                  
SEARCY         FAIR      75  66  73 S8        29.93F                  
STUTTGART      FAIR      75  62  64 S13       29.95F                  
PINE BLUFF     FAIR      76  61  59 S13       29.95F                  
MONTICELLO     FAIR      75  61  61 S8G17     29.97S                  


...NORTH MISSISSIPPI...
  
CITY           SKY/WX    TMP DP  RH WIND       PRES   REMARKS
TUPELO         FAIR      76  60  57 S5        30.00F                  
OXFORD         FAIR      73  59  60 VRB8      30.00F                  
BATESVILLE     PTSUNNY   77  63  61 S10       29.98F                  
OLIVE BRANCH   MOSUNNY   72  66  83 SW6       29.97F                  
TUNICA           N/A     73  63  68 S9        29.98F                  
CLARKSDALE     MOSUNNY   81  64  57 S9        29.98F                  
CORINTH        FAIR      75  59  57 CALM      29.99F                  
GREENWOOD      FAIR      75  61  61 SW7       30.00F                  
COLUMBUS       FAIR      76  59  54 SW5       30.01F                  
STARKVILLE     FAIR      73  59  60 CALM      30.02F                  
GOLDEN TRIANGL FAIR      74  62  66 VRB6      30.02F                  


...SOUTHEAST MISSOURI...
  
CITY           SKY/WX    TMP DP  RH WIND       PRES   REMARKS
KENNETT        FAIR      77  66  69 S8G14     29.92S                  
MALDEN         FAIR      75  64  69 S10       29.93F                  
WEST PLAINS    CLOUDY    69  61  75 W6        29.93S                  
POPLAR BLUFF   FAIR      73  65  75 S12G20    29.92R                  
CAPE GIRARDEAU FAIR      73  62  68 S6        29.91S                  


...NORTHWEST ALABAMA...
  
CITY           SKY/WX    TMP DP  RH WIND       PRES   REMARKS
MUSCLE SHOALS  FAIR      74  58  57 MISG      30.02F                  


...MIDDLE TENNESSEE...
  
CITY           SKY/WX    TMP DP  RH WIND       PRES   REMARKS
NASHVILLE      FAIR      76  57  51 VRB3      30.00F                  
CLARKSVILLE    FAIR      75  59  57 S6        29.97S                  
DICKSON        SUNNY     73  59  60 SW9       29.98F                  
COLUMBIA       MOSUNNY   73  61  64 SW9       29.99F                  
LAWRENCEBURG   SUNNY     73  57  56 S8        30.01F                  
LEWISBURG      MOSUNNY   73  57  56 S12       30.01F                  


...WESTERN KENTUCKY...
  
CITY           SKY/WX    TMP DP  RH WIND       PRES   REMARKS
PADUCAH        FAIR      76  61  59 SW6       29.92F                  
FORT CAMPBELL  FAIR      76  61  58 SW9       29.96F                  


...CENTRAL ARKANSAS...
  
CITY           SKY/WX    TMP DP  RH WIND       PRES   REMARKS
LITTLE ROCK    CLOUDY    75  62  64 SW10      29.92F                  


SKY/WX REPORTED AS FAIR MEANS FEW OR NO CLOUDS BELOW
12 THOUSAND FEET.